Change the Weather History Date:

Saturday, June 15, 2013

  Actual Average Record
Temperature  
Mean Temperature 71 °F -  
Max Temperature 82 °F 72 °F 87 °F (2003)
Min Temperature 60 °F 53 °F 46 °F (1999)
Cooling Degree Days 6    
Growing Degree Days 21 (Base 50)    
Moisture  
Dew Point 52 °F    
Average Humidity 55    
Maximum Humidity 100    
Minimum Humidity 23    
Precipitation  
Precipitation 0.00 in - - ()
Sea Level Pressure  
Sea Level Pressure 29.89 in    
Wind  
Wind Speed 8 mph (NW)    
Max Wind Speed 16 mph    
Max Gust Speed 22 mph    
Visibility 10 miles    
Events      
Averages and records for this station are not official NWS values.
T = Trace of Precipitation, MM = Missing Value Source: NWS Daily Summary

Daily Weather History Graph

Daily Weather History Graph

Search for Another Location

Airport or City:

Trip Planner

Search our weather history database for the weather conditions in past years. The results will help you decide how hot, cold, wet, or windy it might be!

Date:

Astronomy

Jun. 15, 2013 Rise Set
Actual Time 5:34 AM CDT 9:14 PM CDT
Civil Twilight 4:56 AM CDT 9:52 PM CDT
Nautical Twilight 4:05 AM CDT 10:43 PM CDT
Astronomical Twilight 2:56 AM CDT 11:52 PM CDT
Moon 12:28 PM CDT (6/15) 12:34 AM CDT (6/15)
Length of Visible Light 16h 56m
Length of Day
15h 40m
Waxing Crescent, 40% of the Moon is Illuminated
Jun 15
Waxing Crescent
Jun 16
First Quarter
Jun 23
Full
Jun 29
Last Quarter
Jul 8
New

Hourly Weather History & Observations

Time (CDT) Temp. Dew Point Humidity Pressure Visibility Wind Dir Wind Speed Gust Speed Precip Events Conditions
12:11 AM 68.0 °F 62.6 °F 83% 29.82 in 10.0 mi SE 10.4 mph - N/A   Clear
12:31 AM 68.0 °F 62.6 °F 83% 29.82 in 10.0 mi SSE 10.4 mph - N/A   Clear
12:51 AM 68.0 °F 62.6 °F 83% 29.83 in 10.0 mi SE 4.6 mph - N/A   Clear
1:11 AM 66.2 °F 62.6 °F 88% 29.84 in 10.0 mi SE 8.1 mph - N/A   Clear
1:31 AM 68.0 °F 62.6 °F 83% 29.84 in 10.0 mi SSE 9.2 mph - N/A   Clear
1:51 AM 68.0 °F 62.6 °F 83% 29.84 in 10.0 mi SSE 16.1 mph - N/A   Clear
2:11 AM 66.2 °F 62.6 °F 88% 29.84 in 10.0 mi SSE 10.4 mph - N/A   Clear
2:31 AM 66.2 °F 62.6 °F 88% 29.84 in 10.0 mi South 9.2 mph - N/A   Clear
2:51 AM 66.2 °F 62.6 °F 88% 29.85 in 10.0 mi South 5.8 mph - N/A   Clear
3:11 AM 64.4 °F 62.6 °F 94% 29.85 in 10.0 mi Calm Calm - N/A   Clear
3:31 AM 64.4 °F 62.6 °F 94% 29.84 in 10.0 mi Calm Calm - N/A   Clear
3:51 AM 64.4 °F 62.6 °F 94% 29.84 in 10.0 mi NW 3.5 mph - N/A   Clear
4:11 AM 62.6 °F 60.8 °F 94% 29.82 in 10.0 mi Calm Calm - N/A   Clear
4:31 AM 62.6 °F 60.8 °F 94% 29.84 in 7.0 mi Calm Calm - N/A   Clear
4:51 AM 60.8 °F 60.8 °F 100% 29.85 in 7.0 mi Calm Calm - N/A   Clear
5:11 AM 60.8 °F 60.8 °F 100% 29.86 in 5.0 mi Calm Calm - N/A   Clear
5:31 AM 62.6 °F 60.8 °F 94% 29.85 in 7.0 mi NNW 4.6 mph - N/A   Clear
5:51 AM 60.8 °F 60.8 °F 100% 29.86 in 5.0 mi NW 3.5 mph - N/A   Clear
6:11 AM 62.6 °F 60.8 °F 94% 29.88 in 7.0 mi WNW 6.9 mph - N/A   Clear
6:31 AM 64.4 °F 62.6 °F 94% 29.90 in 10.0 mi WNW 12.7 mph - N/A   Clear
6:51 AM 66.2 °F 62.6 °F 88% 29.93 in 10.0 mi NW 13.8 mph - N/A   Clear
7:11 AM 66.2 °F 60.8 °F 83% 29.92 in 10.0 mi NNW 12.7 mph - N/A   Clear
7:31 AM 66.2 °F 57.2 °F 73% 29.90 in 10.0 mi NNW 16.1 mph - N/A   Clear
7:51 AM 66.2 °F 57.2 °F 73% 29.88 in 10.0 mi North 16.1 mph - N/A   Clear
8:11 AM 66.2 °F 57.2 °F 73% 29.88 in 10.0 mi North 13.8 mph - N/A   Clear
8:31 AM 68.0 °F 57.2 °F 68% 29.92 in 10.0 mi North 11.5 mph - N/A   Clear
8:51 AM 69.8 °F 55.4 °F 60% 29.91 in 10.0 mi North 15.0 mph - N/A   Clear
9:11 AM 71.6 °F 53.6 °F 53% 29.94 in 10.0 mi North 11.5 mph - N/A   Clear
9:31 AM 71.6 °F 51.8 °F 50% 29.94 in 10.0 mi North 9.2 mph - N/A   Clear
9:51 AM 73.4 °F 51.8 °F 47% 29.94 in 10.0 mi NNE 10.4 mph - N/A   Clear
10:11 AM 73.4 °F 50.0 °F 44% 29.94 in 10.0 mi NNE 9.2 mph - N/A   Clear
10:31 AM 73.4 °F 51.8 °F 47% 29.94 in 10.0 mi North 4.6 mph - N/A   Clear
10:51 AM 73.4 °F 51.8 °F 47% 29.93 in 10.0 mi NNW 8.1 mph - N/A   Clear
11:11 AM 71.6 °F 51.8 °F 50% 29.92 in 10.0 mi North 9.2 mph - N/A   Clear
11:31 AM 71.6 °F 51.8 °F 50% 29.93 in 10.0 mi North 9.2 mph - N/A   Clear
11:51 AM 73.4 °F 48.2 °F 41% 29.91 in 10.0 mi North 12.7 mph - N/A   Clear
12:11 PM 75.2 °F 50.0 °F 41% 29.92 in 10.0 mi North 11.5 mph - N/A   Clear
12:31 PM 75.2 °F 48.2 °F 38% 29.93 in 10.0 mi North 8.1 mph 17.3 mph N/A   Clear
12:51 PM 75.2 °F 50.0 °F 41% 29.93 in 10.0 mi North 10.4 mph - N/A   Clear
1:11 PM 77.0 °F 50.0 °F 39% 29.93 in 10.0 mi NW 4.6 mph - N/A   Clear
1:31 PM 78.8 °F 44.6 °F 30% 29.93 in 10.0 mi NW 11.5 mph 16.1 mph N/A   Clear
1:51 PM 80.6 °F 42.8 °F 26% 29.93 in 10.0 mi North 10.4 mph - N/A   Clear
2:11 PM 80.6 °F 42.8 °F 26% 29.92 in 10.0 mi NNW 8.1 mph - N/A   Clear
2:31 PM 78.8 °F 42.8 °F 28% 29.91 in 10.0 mi NW 6.9 mph - N/A   Clear
2:51 PM 78.8 °F 42.8 °F 28% 29.91 in 10.0 mi Calm Calm - N/A   Clear
3:11 PM 80.6 °F 44.6 °F 28% 29.91 in 10.0 mi NW 9.2 mph - N/A   Clear
3:31 PM 80.6 °F 41.0 °F 24% 29.91 in 10.0 mi NW 8.1 mph - N/A   Clear
3:51 PM 80.6 °F 41.0 °F 24% 29.90 in 10.0 mi WNW 6.9 mph - N/A   Scattered Clouds
4:11 PM 80.6 °F 41.0 °F 24% 29.90 in 10.0 mi West 4.6 mph - N/A   Scattered Clouds
4:31 PM 82.4 °F 42.8 °F 25% 29.89 in 10.0 mi WNW 5.8 mph - N/A   Clear
4:51 PM 82.4 °F 44.6 °F 26% 29.89 in 10.0 mi WNW 4.6 mph - N/A   Clear
5:11 PM 82.4 °F 44.6 °F 26% 29.88 in 10.0 mi WNW 10.4 mph 17.3 mph N/A   Clear
5:31 PM 82.4 °F 44.6 °F 26% 29.88 in 10.0 mi NW 11.5 mph - N/A   Clear
5:51 PM 82.4 °F 44.6 °F 26% 29.87 in 10.0 mi WNW 12.7 mph - N/A   Clear
6:11 PM 82.4 °F 42.8 °F 25% 29.87 in 10.0 mi West 13.8 mph 17.3 mph N/A   Clear
6:31 PM 80.6 °F 42.8 °F 26% 29.86 in 10.0 mi West 13.8 mph 20.7 mph N/A   Clear
6:51 PM 80.6 °F 39.2 °F 23% 29.86 in 10.0 mi West 12.7 mph - N/A   Clear
7:11 PM 80.6 °F 42.8 °F 26% 29.86 in 10.0 mi West 9.2 mph - N/A   Clear
7:31 PM 80.6 °F 42.8 °F 26% 29.86 in 10.0 mi West 16.1 mph 21.9 mph N/A   Clear
7:51 PM 78.8 °F 44.6 °F 30% 29.86 in 10.0 mi West 10.4 mph - N/A   Clear
8:11 PM 78.8 °F 44.6 °F 30% 29.86 in 10.0 mi West 10.4 mph - N/A   Clear
8:31 PM 75.2 °F 44.6 °F 34% 29.86 in 10.0 mi West 6.9 mph - N/A   Clear
8:51 PM 75.2 °F 44.6 °F 34% 29.86 in 10.0 mi West 9.2 mph - N/A   Clear
9:11 PM 73.4 °F 44.6 °F 36% 29.86 in 10.0 mi West 8.1 mph - N/A   Clear
9:31 PM 71.6 °F 44.6 °F 38% 29.87 in 10.0 mi WSW 8.1 mph - N/A   Clear
9:51 PM 68.0 °F 46.4 °F 46% 29.88 in 10.0 mi West 5.8 mph - N/A   Clear
10:11 PM 66.2 °F 46.4 °F 49% 29.89 in 10.0 mi West 4.6 mph - N/A   Clear
10:31 PM 66.2 °F 44.6 °F 46% 29.90 in 10.0 mi West 5.8 mph - N/A   Clear
10:51 PM 64.4 °F 46.4 °F 52% 29.90 in 10.0 mi West 4.6 mph - N/A   Clear
11:11 PM 64.4 °F 46.4 °F 52% 29.90 in 10.0 mi West 3.5 mph - N/A   Clear
11:31 PM 62.6 °F 46.4 °F 55% 29.90 in 10.0 mi West 4.6 mph - N/A   Clear
11:51 PM 62.6 °F 46.4 °F 55% 29.90 in 10.0 mi West 5.8 mph - N/A   Clear